[[{"header":{"parameterUnit":"m.s-1","parameterCategory":1,"la1":30.2991,"la2":30.254,"lo1":-89.0895,"lo2":-89.0444,"dy":0.0017,"dx":0.0017,"nx":28,"ny":28,"refTime":"2024-05-30T03:00:00:Z","depth":0,"parameterNumber":2,"parameterNumberName":"U-component_of_WINDS"},"data":[0,0,0,0,0,0,0,0,0,0,0,0,0,0,0,0,0,0,0,0,0,0,0,0,0,0,0,0,0,0,0,0,0,0,0,0,0,0,0,0,0,0,0,0,0,0,0,0,0,0,0,0,0,0,0,0,0,0,-3.579,-3.5791,0,-3.5852,-3.5853,-3.5853,-3.5841,-3.584,-3.5839,-3.5838,-3.5897,-3.59,-3.5902,0,0,0,0,0,0,0,0,0,0,0,0,0,-3.5659,-3.5661,-3.579,-3.5791,-3.5792,-3.5852,-3.5853,-3.5854,-3.5841,-3.584,-3.5838,-3.5837,-3.5896,-3.59,-3.5903,0,0,0,0,0,0,0,0,0,0,0,0,0,-3.5718,-3.5662,-3.579,-3.5793,-3.5794,-3.5852,-3.5853,-3.5854,-3.5841,-3.584,-3.5838,-3.5837,-3.5895,-3.5899,-3.5903,-3.5961,0,0,-3.5915,-3.5917,0,0,0,0,0,0,0,0,-3.5714,-3.5722,-3.5792,-3.5793,-3.5794,-3.5837,-3.5828,-3.589,-3.5842,-3.5823,-3.5838,-3.5836,-3.5878,-3.5884,-3.5899,-3.5964,-3.5966,-3.5916,-3.5918,-3.592,-3.5921,0,0,0,0,0,0,0,-3.571,-3.572,-3.5815,-3.5793,-3.5794,-3.579,-3.5797,-3.584,-3.5859,-3.5825,-3.5824,-3.5832,-3.5879,-3.5895,-3.59,-3.5967,-3.5915,-3.5919,-3.5921,-3.5923,-3.6082,-3.6084,0,0,0,0,0,0,-3.5706,-3.5716,-3.5813,-3.5816,-3.5749,-3.5794,-3.5801,-3.5825,-3.5859,-3.5863,-3.5833,-3.5831,-3.5889,-3.5895,-3.5902,-3.5971,-3.592,-3.5923,-3.5926,-3.6081,-3.6083,-3.6085,0,0,0,0,0,0,-3.5703,-3.5714,-3.581,-3.5766,-3.5778,-3.5798,-3.5825,-3.5827,-3.5843,-3.5865,-3.5868,-3.5846,-3.5888,-3.5897,-3.5947,-3.5973,-3.5925,-3.5929,-3.6078,-3.6081,-3.6084,-3.6109,0,0,0,0,0,0,-3.5699,-3.5713,-3.5736,-3.5767,-3.5781,-3.5854,-3.5826,-3.5829,-3.5851,-3.5848,-3.5878,-3.5882,-3.5887,-3.5941,-3.5951,-3.5977,-3.5932,-3.6076,-3.608,-3.6083,-3.6106,-3.6113,-3.6118,0,0,0,0,0,-3.5694,-3.574,-3.5737,-3.5749,-3.5809,-3.5856,-3.5863,-3.587,-3.5853,-3.5875,-3.5889,-3.5881,-3.5969,-3.5946,-3.5957,-3.5985,-3.6074,-3.6079,-3.6083,-3.6104,-3.6112,-3.6118,0,0,0,0,0,0,-3.571,-3.5744,-3.5741,-3.5798,-3.5825,-3.5854,-3.5882,-3.5878,-3.5909,-3.5905,-3.5911,-3.5918,-3.5969,-3.5983,-3.5956,-3.6043,-3.6019,-3.6026,-3.6031,-3.6039,-3.6045,-3.6039,-3.5935,0,0,0,0,0,-3.572,-3.5756,-3.5784,-3.5831,-3.5845,-3.5861,-3.5882,-3.5885,-3.5912,-3.5922,-3.594,-3.5965,-3.5999,-3.602,-3.6052,-3.611,-3.6115,-3.6135,-3.6141,-3.6146,-3.615,-3.618,-3.6189,-3.6099,-3.6099,-3.6099,0,0,-3.5741,-3.5764,-3.5786,-3.5835,-3.5856,-3.5891,-3.587,-3.5909,-3.5935,-3.5927,-3.5975,-3.599,-3.6019,-3.6072,-3.6097,-3.6085,-3.6177,-3.6151,-3.6155,-3.6157,-3.6186,-3.6194,-3.6202,-3.6102,-3.6101,-3.6101,0,0,-3.5797,-3.5819,-3.5861,-3.5882,-3.5914,-3.5926,-3.5936,-3.5966,-3.5976,-3.6025,-3.6019,-3.6051,-3.6109,-3.6129,-3.6147,-3.6213,-3.6206,-3.6224,-3.6254,-3.6283,-3.629,-3.6297,-3.6318,-3.6326,-3.6229,-3.6229,-3.6229,0,-3.5818,-3.5872,-3.5882,-3.5922,-3.5943,-3.594,-3.5981,-3.6002,-3.6042,-3.6056,-3.6044,-3.6117,-3.6136,-3.6194,-3.621,-3.6226,-3.6236,-3.6218,-3.6289,-3.6295,-3.6301,-3.6322,-3.633,-3.6231,-3.6231,-3.6231,-3.623,0,-3.5896,-3.5934,-3.5964,-3.6005,-3.603,-3.607,-3.6085,-3.6109,-3.6111,-3.6123,-3.6173,-3.6197,-3.6233,-3.6248,-3.625,-3.6307,-3.6298,-3.6288,-3.6263,-3.6312,-3.6331,-3.6339,-3.6233,-3.6233,-3.6232,-3.6232,0,0,-3.5959,-3.6007,-3.6017,-3.6035,-3.6072,-3.6101,-3.6142,-3.6179,-3.6198,-3.6228,-3.626,-3.6311,-3.6301,-3.6322,-3.6327,-3.6353,-3.6402,-3.6339,-3.634,-3.6348,-3.6464,-3.6469,-3.6478,-3.6399,-3.6401,-3.6402,-3.6461,0,-3.6016,-3.6088,-3.6099,-3.6162,-3.6197,-3.6196,-3.6231,-3.6257,-3.627,-3.6301,-3.6316,-3.635,-3.6336,-3.6349,-3.6375,-3.639,-3.6425,-3.6387,-3.6427,-3.6429,-3.6417,-3.6489,-3.6494,-3.6548,-3.6468,-3.647,-3.6471,0,-3.6092,-3.6124,-3.619,-3.6223,-3.6237,-3.6269,-3.6304,-3.6334,-3.6363,-3.6371,-3.6396,-3.6397,-3.6439,-3.6416,-3.6472,-3.6445,-3.6464,-3.6474,-3.6476,-3.6477,-3.645,-3.6489,-3.6566,-3.6573,-3.6483,-3.6482,-3.6481,0,-3.6128,-3.6188,-3.6236,-3.6252,-3.6291,-3.6313,-3.633,-3.6358,-3.638,-3.6411,-3.6425,-3.6461,-3.6479,-3.6506,-3.6517,-3.65,-3.6572,-3.655,-3.6578,-3.6577,-3.659,-3.6588,-3.6667,-3.6607,-3.6607,-3.6607,-3.6606,0,-3.6188,-3.6228,-3.6252,-3.6281,-3.6326,-3.6339,-3.6383,-3.6399,-3.6425,-3.6456,-3.6459,-3.6488,-3.6502,-3.6534,-3.6543,-3.6587,-3.6596,-3.6602,-3.6603,-3.66,-3.6599,-3.6609,-3.6604,-3.6609,-3.6608,-3.6608,-3.6607,0,-3.6234,-3.6253,-3.6304,-3.6338,-3.6348,-3.6379,-3.6408,-3.6435,-3.645,-3.649,-3.65,-3.6522,-3.6559,-3.6574,-3.6619,-3.6626,-3.6675,-3.6675,-3.6665,-3.6665,-3.6691,-3.6687,-3.6777,-3.6789,-3.6723,-3.6724,-3.6724,0,-3.627,-3.6301,-3.6339,-3.6361,-3.6379,-3.6415,-3.6437,-3.6452,-3.6475,-3.6512,-3.6535,-3.6573,-3.6603,-3.6663,-3.6682,-3.6717,-3.6716,-3.6745,-3.6721,-3.6716,-3.6713,-3.671,-3.6712,-3.6748,-3.6749,-3.6749,-3.675,0,-3.6331,-3.6339,-3.6372,-3.6409,-3.6436,-3.6466,-3.6495,-3.6512,-3.6531,-3.6557,-3.6596,-3.662,-3.6667,-3.6704,-3.674,-3.6757,-3.6756,-3.6758,-3.6766,-3.6761,-3.6753,-3.6755,-3.6674,-3.6755,-3.6754,-3.6754,-3.6754,-3.6753,-3.6371,-3.6398,-3.6429,-3.6466,-3.649,-3.6517,-3.6545,-3.6564,-3.6597,-3.6637,-3.6644,-3.6685,-3.6714,-3.6763,-3.6782,-3.6814,-3.6806,-3.6818,-3.682,-3.6822,-3.6822,-3.6751,-3.6821,-3.6821,-3.682,-3.682,-3.682,0,-3.6429,-3.645,-3.6484,-3.6525,-3.6554,-3.6554,-3.6586,-3.661,-3.6646,-3.6675,-3.6705,-3.675,-3.6786,-3.681,-3.6846,-3.6867,-3.6867,-3.6875,-3.6872,-3.6876,-3.6828,-3.6817,-3.6874,-3.6874,-3.6874,-3.6874,-3.6874,-3.6874,-3.6463,-3.6508,-3.6521,-3.6578,-3.6599,-3.6639,-3.6658,-3.6682,-3.6705,-3.6755,-3.6785,-3.6802,-3.6828,-3.6866,-3.6899,-3.6906,-3.6917,-3.6926,-3.6931,-3.6885,-3.6879,-3.6874,-3.6863,-3.6929,-3.6929,-3.6976,-3.6976,-3.6976]},{"header":{"parameterUnit":"m.s-1","parameterCategory":1,"la1":30.2991,"la2":30.254,"lo1":-89.0895,"lo2":-89.0444,"dy":0.0017,"dx":0.0017,"nx":28,"ny":28,"refTime":"2024-05-30T03:00:00:Z","depth":0,"parameterNumber":3,"parameterNumberName":"V-component_of_WINDS"},"data":[0,0,0,0,0,0,0,0,0,0,0,0,0,0,0,0,0,0,0,0,0,0,0,0,0,0,0,0,0,0,0,0,0,0,0,0,0,0,0,0,0,0,0,0,0,0,0,0,0,0,0,0,0,0,0,0,0,0,2.1518,2.1517,0,2.1435,2.1434,2.1433,2.1333,2.1331,2.133,2.1328,2.1239,2.1238,2.1237,0,0,0,0,0,0,0,0,0,0,0,0,0,2.1589,2.1588,2.1518,2.1517,2.1516,2.1435,2.1434,2.1432,2.1333,2.1331,2.1329,2.1328,2.1239,2.1238,2.1237,0,0,0,0,0,0,0,0,0,0,0,0,0,2.1537,2.1588,2.1518,2.1457,2.145,2.1435,2.1434,2.1432,2.1333,2.1331,2.1329,2.1327,2.1239,2.1238,2.1237,2.1274,0,0,2.1232,2.1232,0,0,0,0,0,0,0,0,2.154,2.1535,2.1467,2.1461,2.1454,2.1392,2.1426,2.1379,2.1334,2.1378,2.1328,2.1326,2.1291,2.1285,2.1275,2.127,2.1266,2.1232,2.1231,2.1231,2.123,0,0,0,0,0,0,0,2.1544,2.1538,2.1485,2.1466,2.1458,2.1433,2.1423,2.1416,2.1348,2.1374,2.1366,2.1358,2.1287,2.1276,2.1272,2.1264,2.1232,2.1231,2.123,2.1229,2.1286,2.1289,0,0,0,0,0,0,2.1557,2.1541,2.1487,2.1482,2.1492,2.1433,2.1422,2.1414,2.1348,2.1336,2.136,2.1354,2.128,2.1274,2.1268,2.1307,2.1231,2.1229,2.1228,2.1284,2.1287,2.129,0,0,0,0,0,0,2.1559,2.1553,2.1491,2.151,2.15,2.1434,2.1426,2.1414,2.1402,2.1338,2.1325,2.1362,2.1278,2.127,2.1274,2.1303,2.1229,2.1227,2.1281,2.1285,2.1288,2.1386,0,0,0,0,0,0,2.1562,2.1555,2.1568,2.1511,2.1499,2.1499,2.1428,2.1414,2.1401,2.1392,2.1336,2.1324,2.1275,2.1276,2.1272,2.1299,2.1226,2.1278,2.1283,2.1287,2.138,2.1392,2.1403,0,0,0,0,0,2.1565,2.1598,2.157,2.1564,2.1515,2.15,2.1494,2.1438,2.1404,2.1416,2.1375,2.1326,2.1301,2.1278,2.1272,2.1299,2.1276,2.1282,2.1287,2.1374,2.139,2.1403,0,0,0,0,0,0,2.1658,2.1589,2.1557,2.1573,2.1544,2.1484,2.1498,2.1456,2.1434,2.1426,2.1357,2.1346,2.1357,2.1329,2.1304,2.1332,2.1281,2.1286,2.135,2.1364,2.1376,2.1381,2.1225,0,0,0,0,0,2.1682,2.1676,2.1616,2.1636,2.1623,2.1564,2.1555,2.1515,2.1481,2.1468,2.1426,2.1394,2.1379,2.137,2.1353,2.1376,2.1362,2.1393,2.1404,2.1414,2.1418,2.1429,2.1441,2.1307,2.1307,2.1307,0,0,2.1728,2.169,2.169,2.1654,2.1626,2.1621,2.1553,2.1551,2.1546,2.1466,2.1467,2.1437,2.1396,2.141,2.1414,2.1387,2.1453,2.1421,2.143,2.1428,2.1435,2.1448,2.146,2.1311,2.131,2.131,0,0,2.181,2.1781,2.1795,2.1769,2.1729,2.169,2.1694,2.1641,2.1618,2.1619,2.1559,2.1553,2.1528,2.1502,2.1486,2.1562,2.1515,2.1558,2.1618,2.1629,2.164,2.1649,2.1675,2.1686,2.1563,2.1563,2.1563,0,2.1872,2.1863,2.1807,2.1808,2.1794,2.1725,2.1738,2.1716,2.1672,2.1663,2.1634,2.1603,2.1571,2.1578,2.1597,2.1587,2.1588,2.1563,2.1643,2.1652,2.1659,2.1683,2.1694,2.1569,2.1568,2.1567,2.1567,0,2.1941,2.1937,2.1952,2.1914,2.1902,2.1909,2.1853,2.1848,2.1811,2.1775,2.1776,2.1737,2.171,2.1709,2.1672,2.1711,2.1696,2.1656,2.1603,2.1678,2.17,2.1709,2.1576,2.1574,2.1573,2.1571,0,0,2.2076,2.2009,2.2015,2.1997,2.195,2.1945,2.195,2.1926,2.1922,2.1896,2.1897,2.188,2.1844,2.1826,2.1785,2.1795,2.1858,2.1754,2.1752,2.1774,2.1899,2.1927,2.1939,2.1828,2.183,2.1831,2.1901,0,2.2148,2.2153,2.2104,2.2122,2.2116,2.2052,2.2057,2.2028,2.1996,2.1986,2.195,2.1938,2.1892,2.1881,2.1888,2.1849,2.1882,2.1843,2.1828,2.1828,2.1837,2.195,2.1979,2.2047,2.191,2.1911,2.1912,0,2.2231,2.2211,2.2229,2.2183,2.2178,2.2183,2.2158,2.215,2.2117,2.2093,2.2075,2.2029,2.203,2.1983,2.1983,2.1958,2.195,2.193,2.1931,2.1925,2.1873,2.1945,2.2068,2.2078,2.1925,2.1924,2.1923,0,2.2326,2.2303,2.2311,2.2298,2.2245,2.225,2.2227,2.2192,2.2182,2.216,2.2152,2.2131,2.2118,2.2103,2.2053,2.2023,2.2059,2.2007,2.2037,2.2039,2.2045,2.2045,2.2166,2.2044,2.2044,2.2044,2.2043,0,2.2409,2.2422,2.2354,2.2358,2.2372,2.2316,2.233,2.2302,2.2272,2.2269,2.2213,2.2212,2.2147,2.2139,2.21,2.2106,2.2101,2.2081,2.207,2.2085,2.2087,2.2076,2.2069,2.2046,2.2046,2.2045,2.2045,0,2.2515,2.247,2.2475,2.2425,2.2413,2.2425,2.2382,2.2384,2.235,2.2348,2.2344,2.229,2.2277,2.2227,2.2202,2.2176,2.2194,2.2174,2.2206,2.2198,2.2231,2.2228,2.2347,2.2359,2.2232,2.2233,2.2234,0,2.257,2.2579,2.2532,2.2527,2.2508,2.2501,2.2491,2.2437,2.2429,2.2393,2.24,2.2384,2.2367,2.235,2.2308,2.2289,2.2267,2.231,2.2263,2.2278,2.2265,2.2265,2.2265,2.2319,2.2321,2.2322,2.2323,0,2.2672,2.265,2.2638,2.262,2.2609,2.2591,2.257,2.2569,2.251,2.2503,2.2491,2.2479,2.2455,2.2439,2.2414,2.239,2.2346,2.2339,2.2345,2.2358,2.2376,2.2366,2.2231,2.2336,2.2334,2.2334,2.2333,2.2332,2.2753,2.2759,2.2727,2.2715,2.2695,2.2677,2.2677,2.2644,2.2633,2.261,2.258,2.2572,2.254,2.2502,2.2482,2.2474,2.245,2.2458,2.246,2.2462,2.2469,2.238,2.2469,2.2469,2.2469,2.2468,2.2468,0,2.2851,2.2828,2.2819,2.2792,2.2784,2.2747,2.2722,2.2717,2.2711,2.2686,2.2672,2.2659,2.2644,2.2603,2.2584,2.2586,2.2566,2.2582,2.258,2.2575,2.2493,2.2489,2.2599,2.2599,2.2599,2.2599,2.2599,2.2599,2.29,2.2908,2.2883,2.288,2.2856,2.2849,2.2838,2.2821,2.2801,2.2789,2.2778,2.2752,2.272,2.2699,2.2684,2.2672,2.2666,2.269,2.2671,2.2594,2.2581,2.2569,2.2565,2.2689,2.269,2.2754,2.2754,2.2755]}]]